Time,TemperatureF,DewpointF,PressureIn,WindDirection,WindDirectionDegrees,WindSpeedMPH,WindSpeedGustMPH,Humidity,HourlyPrecipIn,Conditions,Clouds,dailyrainin,SolarRadiationWatts/m^2,SoftwareType,DateUTC
2013-03-14 00:01:00,47.3,27.5,30.12,SE,146,0.0,0.0,46,0.00,BKN,BKN,0.00,0.0,WeatherDisplay:10.37,2013-03-14 06:01:00,
2013-03-14 00:07:00,46.8,27.1,30.09,SE,146,0.0,0.0,46,0.00,BKN,BKN,0.00,0.0,WeatherDisplay:10.37,2013-03-14 06:07:00,
2013-03-14 00:14:00,46.3,27.2,30.09,SE,146,0.0,0.0,47,0.00,BKN,BKN,0.00,0.0,WeatherDisplay:10.37,2013-03-14 06:14:00,
2013-03-14 00:21:00,45.9,27.3,30.10,SE,146,0.0,0.0,48,0.00,BKN,BKN,0.00,0.0,WeatherDisplay:10.37,2013-03-14 06:21:00,
2013-03-14 00:28:00,45.6,28.0,30.09,SE,146,0.5,1.1,50,0.00,BKN,BKN,0.00,0.0,WeatherDisplay:10.37,2013-03-14 06:28:00,
2013-03-14 00:35:00,45.2,26.7,30.10,SE,145,0.0,0.0,48,0.00,BKN,BKN,0.00,0.0,WeatherDisplay:10.37,2013-03-14 06:35:00,
2013-03-14 00:42:00,45.0,27.0,30.11,SE,146,0.2,1.0,49,0.00,BKN,BKN,0.00,0.0,WeatherDisplay:10.37,2013-03-14 06:42:00,
2013-03-14 00:49:00,45.0,27.5,30.10,SE,146,0.0,2.3,50,0.00,BKN,BKN,0.00,0.0,WeatherDisplay:10.37,2013-03-14 06:49:00,
2013-03-14 00:56:00,44.7,27.7,30.11,SE,146,1.1,2.3,51,0.00,BKN,BKN,0.00,0.0,WeatherDisplay:10.37,2013-03-14 06:56:00,
2013-03-14 01:03:00,44.5,28.0,30.09,SE,145,0.2,2.3,52,0.00,BKN,BKN,0.00,0.0,WeatherDisplay:10.37,2013-03-14 07:03:00,
2013-03-14 01:10:00,44.2,28.1,30.09,SE,146,0.0,2.3,53,0.00,BKN,BKN,0.00,0.0,WeatherDisplay:10.37,2013-03-14 07:10:00,
2013-03-14 01:17:00,43.9,27.9,30.09,SE,146,0.3,2.0,53,0.00,BKN,BKN,0.00,0.0,WeatherDisplay:10.37,2013-03-14 07:17:00,
2013-03-14 01:24:00,43.6,27.6,30.09,SE,146,1.1,2.3,53,0.00,BKN,BKN,0.00,0.0,WeatherDisplay:10.37,2013-03-14 07:24:00,
2013-03-14 01:31:00,43.4,27.4,30.10,SE,146,0.0,0.0,53,0.00,BKN,BKN,0.00,0.0,WeatherDisplay:10.37,2013-03-14 07:31:00,
2013-03-14 01:38:00,43.2,27.7,30.10,SE,145,0.0,1.1,54,0.00,BKN,BKN,0.00,0.0,WeatherDisplay:10.37,2013-03-14 07:38:00,
2013-03-14 01:45:00,42.9,26.5,30.11,SE,145,0.0,0.0,52,0.00,BKN,BKN,0.00,0.0,WeatherDisplay:10.37,2013-03-14 07:45:00,
2013-03-14 01:52:00,42.7,26.3,30.11,SE,145,0.7,1.1,52,0.00,BKN,BKN,0.00,0.0,WeatherDisplay:10.37,2013-03-14 07:52:00,
2013-03-14 01:59:00,42.6,27.1,30.11,SE,145,1.0,2.3,54,0.00,BKN,BKN,0.00,0.0,WeatherDisplay:10.37,2013-03-14 07:59:00,
2013-03-14 02:06:00,42.3,27.3,30.11,SE,145,0.8,2.3,55,0.00,BKN,BKN,0.00,0.0,WeatherDisplay:10.37,2013-03-14 08:06:00,
2013-03-14 02:13:00,41.9,27.3,30.11,SE,146,2.1,3.4,56,0.00,BKN,BKN,0.00,0.0,WeatherDisplay:10.37,2013-03-14 08:13:00,
2013-03-14 02:20:00,41.4,27.3,30.11,SE,146,2.7,3.4,57,0.00,BKN,BKN,0.00,0.0,WeatherDisplay:10.37,2013-03-14 08:20:00,
2013-03-14 02:27:00,40.7,27.1,30.11,SSE,148,1.1,3.4,58,0.00,BKN,BKN,0.00,0.0,WeatherDisplay:10.37,2013-03-14 08:27:00,
2013-03-14 02:34:00,40.2,27.0,30.12,SSE,148,2.2,3.4,59,0.00,BKN,BKN,0.00,0.0,WeatherDisplay:10.37,2013-03-14 08:34:00,
2013-03-14 02:41:00,39.8,27.0,30.12,SSE,148,0.0,0.0,60,0.00,BKN,BKN,0.00,0.0,WeatherDisplay:10.37,2013-03-14 08:41:00,
2013-03-14 02:48:00,39.6,26.8,30.12,SSE,148,1.8,2.3,60,0.00,BKN,BKN,0.00,0.0,WeatherDisplay:10.37,2013-03-14 08:48:00,
2013-03-14 02:55:00,39.3,27.0,30.12,SSE,148,1.5,3.4,61,0.00,BKN,BKN,0.00,0.0,WeatherDisplay:10.37,2013-03-14 08:55:00,
2013-03-14 03:02:00,39.0,26.7,30.11,SSE,148,0.0,0.0,61,0.00,BKN,BKN,0.00,0.0,WeatherDisplay:10.37,2013-03-14 09:02:00,
2013-03-14 03:09:00,38.7,26.0,30.11,SSE,148,0.6,2.3,60,0.00,BKN,BKN,0.00,0.0,WeatherDisplay:10.37,2013-03-14 09:09:00,
2013-03-14 03:16:00,38.6,25.9,30.11,SSE,148,0.0,0.0,60,0.00,SCT,SCT,0.00,0.0,WeatherDisplay:10.37,2013-03-14 09:16:00,
2013-03-14 03:23:00,38.5,25.8,30.11,SSE,148,0.5,1.1,60,0.00,SCT,SCT,0.00,0.0,WeatherDisplay:10.37,2013-03-14 09:23:00,
2013-03-14 03:30:00,38.5,25.8,30.10,SSE,148,1.7,3.4,60,0.00,SCT,SCT,0.00,0.0,WeatherDisplay:10.37,2013-03-14 09:30:00,
2013-03-14 03:37:00,38.4,25.7,30.10,SSE,150,3.5,5.0,60,0.00,SCT,SCT,0.00,0.0,WeatherDisplay:10.37,2013-03-14 09:37:00,
2013-03-14 03:44:00,38.4,26.1,30.10,SSE,150,0.8,3.4,61,0.00,SCT,SCT,0.00,0.0,WeatherDisplay:10.37,2013-03-14 09:44:00,
2013-03-14 03:51:00,38.3,26.0,30.10,SSE,150,0.1,1.1,61,0.00,SCT,SCT,0.00,0.0,WeatherDisplay:10.37,2013-03-14 09:51:00,
2013-03-14 03:58:00,38.3,26.0,30.10,SSE,150,1.4,2.3,61,0.00,SCT,SCT,0.00,0.0,WeatherDisplay:10.37,2013-03-14 09:58:00,
2013-03-14 04:05:00,38.2,25.9,30.10,SSE,150,1.3,3.4,61,0.00,SCT,SCT,0.00,0.0,WeatherDisplay:10.37,2013-03-14 10:05:00,
2013-03-14 04:12:00,38.0,26.1,30.10,SSE,150,1.6,3.4,62,0.00,SCT,SCT,0.00,0.0,WeatherDisplay:10.37,2013-03-14 10:12:00,
2013-03-14 04:19:00,37.9,26.0,30.10,SSE,149,1.9,3.4,62,0.00,SCT,SCT,0.00,0.0,WeatherDisplay:10.37,2013-03-14 10:19:00,
2013-03-14 04:26:00,37.6,26.1,30.10,SSE,150,2.2,3.4,63,0.00,SCT,SCT,0.00,0.0,WeatherDisplay:10.37,2013-03-14 10:26:00,
2013-03-14 04:33:00,37.4,25.9,30.10,SSE,149,2.4,3.4,63,0.00,SCT,SCT,0.00,0.0,WeatherDisplay:10.37,2013-03-14 10:33:00,
2013-03-14 04:40:00,37.1,26.0,30.10,SSE,150,1.6,2.3,64,0.00,SCT,SCT,0.00,0.0,WeatherDisplay:10.37,2013-03-14 10:40:00,
2013-03-14 04:47:00,37.0,25.9,30.11,SSE,150,0.7,2.3,64,0.00,SCT,SCT,0.00,0.0,WeatherDisplay:10.37,2013-03-14 10:47:00,
2013-03-14 04:54:00,36.9,25.9,30.11,SSE,150,1.8,3.4,64,0.00,SCT,SCT,0.00,0.0,WeatherDisplay:10.37,2013-03-14 10:54:00,
2013-03-14 05:01:00,36.8,26.1,30.11,SSE,149,3.0,4.6,65,0.00,SCT,SCT,0.00,0.0,WeatherDisplay:10.37,2013-03-14 11:01:00,
2013-03-14 05:08:00,36.8,26.1,30.12,SSE,149,2.8,3.4,65,0.00,SCT,SCT,0.00,0.0,WeatherDisplay:10.37,2013-03-14 11:08:00,
2013-03-14 05:15:00,36.9,26.2,30.12,SSE,148,1.9,4.6,65,0.00,SCT,SCT,0.00,0.0,WeatherDisplay:10.37,2013-03-14 11:15:00,
2013-03-14 05:22:00,36.9,26.2,30.13,SE,145,0.9,3.4,65,0.00,SCT,SCT,0.00,0.0,WeatherDisplay:10.37,2013-03-14 11:22:00,
2013-03-14 05:29:00,37.0,26.3,30.13,SE,146,1.6,3.4,65,0.00,SCT,SCT,0.00,0.0,WeatherDisplay:10.37,2013-03-14 11:29:00,
2013-03-14 05:36:00,37.1,26.4,30.13,SE,146,3.3,3.4,65,0.00,SCT,SCT,0.00,0.0,WeatherDisplay:10.37,2013-03-14 11:36:00,
2013-03-14 05:43:00,37.1,26.0,30.14,SE,146,1.7,3.4,64,0.00,SCT,SCT,0.00,0.0,WeatherDisplay:10.37,2013-03-14 11:43:00,
2013-03-14 05:50:00,37.1,26.0,30.14,SE,146,1.2,3.4,64,0.00,SCT,SCT,0.00,0.0,WeatherDisplay:10.37,2013-03-14 11:50:00,
2013-03-14 05:57:00,37.1,26.0,30.14,SE,146,2.1,3.4,64,0.00,SCT,SCT,0.00,0.0,WeatherDisplay:10.37,2013-03-14 11:57:00,
2013-03-14 06:04:00,37.1,26.0,30.17,SE,145,2.5,3.4,64,0.00,SCT,SCT,0.00,0.0,WeatherDisplay:10.37,2013-03-14 12:04:00,
2013-03-14 06:11:00,37.1,26.0,30.17,SE,146,1.5,3.4,64,0.00,SCT,SCT,0.00,0.0,WeatherDisplay:10.37,2013-03-14 12:11:00,
2013-03-14 06:18:00,37.1,26.0,30.17,SSE,148,3.1,4.6,64,0.00,SCT,SCT,0.00,0.0,WeatherDisplay:10.37,2013-03-14 12:18:00,
2013-03-14 06:25:00,37.2,26.1,30.17,SE,146,4.1,5.8,64,0.00,SCT,SCT,0.00,0.0,WeatherDisplay:10.37,2013-03-14 12:25:00,
2013-03-14 06:32:00,37.2,25.8,30.17,SE,143,4.1,6.9,63,0.00,SCT,SCT,0.00,0.0,WeatherDisplay:10.37,2013-03-14 12:32:00,
2013-03-14 06:39:00,37.1,25.7,30.17,SE,140,1.8,3.4,63,0.00,SCT,SCT,0.00,0.0,WeatherDisplay:10.37,2013-03-14 12:39:00,
2013-03-14 06:46:00,37.0,25.9,30.18,SE,140,0.8,2.0,64,0.00,SCT,SCT,0.00,0.0,WeatherDisplay:10.37,2013-03-14 12:46:00,
2013-03-14 06:53:00,37.0,25.9,30.18,SE,140,3.5,4.6,64,0.00,SCT,SCT,0.00,0.0,WeatherDisplay:10.37,2013-03-14 12:53:00,
2013-03-14 07:00:00,36.8,25.8,30.18,SE,140,2.1,3.4,64,0.00,SCT,SCT,0.00,0.0,WeatherDisplay:10.37,2013-03-14 13:00:00,
2013-03-14 07:07:00,36.7,25.7,30.19,SE,140,2.4,3.4,64,0.00,SCT,SCT,0.00,0.0,WeatherDisplay:10.37,2013-03-14 13:07:00,
2013-03-14 07:14:00,36.5,25.8,30.19,SE,140,1.5,3.4,65,0.00,SCT,SCT,0.00,7.0,WeatherDisplay:10.37,2013-03-14 13:14:00,
2013-03-14 07:21:00,36.4,25.7,30.19,SE,143,0.8,2.3,65,0.00,SCT,SCT,0.00,11.0,WeatherDisplay:10.37,2013-03-14 13:21:00,
2013-03-14 07:28:00,36.4,25.7,30.19,SE,144,3.1,4.6,65,0.00,SCT,SCT,0.00,16.0,WeatherDisplay:10.37,2013-03-14 13:28:00,
2013-03-14 07:35:00,36.4,26.1,30.19,SE,146,3.8,4.6,66,0.00,SCT,SCT,0.00,19.0,WeatherDisplay:10.37,2013-03-14 13:35:00,
2013-03-14 07:42:00,36.4,26.1,30.20,SE,136,2.2,3.4,66,0.00,SCT,SCT,0.00,25.0,WeatherDisplay:10.37,2013-03-14 13:42:00,
2013-03-14 07:49:00,36.5,26.2,30.21,SE,138,1.3,3.4,66,0.00,SCT,SCT,0.00,91.0,WeatherDisplay:10.37,2013-03-14 13:49:00,
2013-03-14 07:56:00,36.9,26.2,30.21,SE,139,2.9,3.4,65,0.00,SCT,SCT,0.00,120.0,WeatherDisplay:10.37,2013-03-14 13:56:00,
2013-03-14 08:03:00,37.5,26.8,30.22,SE,138,3.9,5.8,65,0.00,SCT,SCT,0.00,139.0,WeatherDisplay:10.37,2013-03-14 14:03:00,
2013-03-14 08:10:00,38.0,26.9,30.22,SSE,152,2.7,4.6,64,0.00,SCT,SCT,0.00,158.0,WeatherDisplay:10.37,2013-03-14 14:10:00,
2013-03-14 08:17:00,38.7,27.2,30.21,SSE,152,2.1,3.4,63,0.00,SCT,SCT,0.00,185.0,WeatherDisplay:10.37,2013-03-14 14:17:00,
2013-03-14 08:24:00,39.3,27.4,30.21,SSE,152,4.9,6.9,62,0.00,SCT,SCT,0.00,207.0,WeatherDisplay:10.37,2013-03-14 14:24:00,
2013-03-14 08:31:00,40.0,27.6,30.22,SE,136,5.0,6.9,61,0.00,SCT,SCT,0.00,232.0,WeatherDisplay:10.37,2013-03-14 14:31:00,
2013-03-14 08:38:00,40.8,27.6,30.21,SE,144,3.1,4.6,59,0.00,SCT,SCT,0.00,255.0,WeatherDisplay:10.37,2013-03-14 14:38:00,
2013-03-14 08:45:00,41.7,27.6,30.22,SSE,148,1.5,4.6,57,0.00,SCT,SCT,0.00,276.0,WeatherDisplay:10.37,2013-03-14 14:45:00,
2013-03-14 08:52:00,42.9,27.8,30.20,ESE,121,3.0,5.0,55,0.00,SCT,SCT,0.00,301.0,WeatherDisplay:10.37,2013-03-14 14:52:00,
2013-03-14 08:59:00,44.0,28.0,30.20,SSE,155,3.4,5.8,53,0.00,SCT,SCT,0.00,325.0,WeatherDisplay:10.37,2013-03-14 14:59:00,
2013-03-14 09:06:00,45.2,28.6,30.22,SE,140,3.6,4.6,52,0.00,SCT,SCT,0.00,355.0,WeatherDisplay:10.37,2013-03-14 15:06:00,
2013-03-14 09:13:00,46.3,28.7,30.21,SE,144,1.7,3.4,50,0.00,SCT,SCT,0.00,380.0,WeatherDisplay:10.37,2013-03-14 15:13:00,
2013-03-14 09:20:00,47.6,29.4,30.19,SE,142,0.8,3.4,49,0.00,SCT,SCT,0.00,399.0,WeatherDisplay:10.37,2013-03-14 15:20:00,
2013-03-14 09:27:00,49.2,29.8,30.19,SE,138,1.2,3.4,47,0.00,SCT,SCT,0.00,420.0,WeatherDisplay:10.37,2013-03-14 15:27:00,
2013-03-14 09:34:00,50.3,29.7,30.17,SE,143,4.3,6.9,45,0.00,SCT,SCT,0.00,450.0,WeatherDisplay:10.37,2013-03-14 15:34:00,
2013-03-14 09:41:00,51.3,30.1,30.17,SE,133,2.5,5.8,44,0.00,SCT,SCT,0.00,473.0,WeatherDisplay:10.37,2013-03-14 15:41:00,
2013-03-14 09:48:00,52.7,29.6,30.16,SE,138,2.7,3.4,41,0.00,SCT,SCT,0.00,492.0,WeatherDisplay:10.37,2013-03-14 15:48:00,
2013-03-14 09:55:00,53.9,30.1,30.15,SSE,147,3.0,5.0,40,0.00,SCT,SCT,0.00,512.0,WeatherDisplay:10.37,2013-03-14 15:55:00,
2013-03-14 10:02:00,55.5,30.9,30.14,SSE,147,1.3,3.4,39,0.00,SCT,SCT,0.00,512.0,WeatherDisplay:10.37,2013-03-14 16:02:00,
2013-03-14 10:08:00,56.4,30.4,30.15,SE,144,0.0,2.3,37,0.00,SCT,SCT,0.00,557.0,WeatherDisplay:10.37,2013-03-14 16:08:00,
2013-03-14 10:15:00,57.5,30.0,30.15,SE,145,0.1,3.4,35,0.00,SCT,SCT,0.00,571.0,WeatherDisplay:10.37,2013-03-14 16:15:00,
2013-03-14 10:22:00,58.9,29.1,30.13,SE,146,1.8,3.4,32,0.00,SCT,SCT,0.00,601.0,WeatherDisplay:10.37,2013-03-14 16:22:00,
2013-03-14 10:29:00,59.5,31.1,30.12,SE,146,0.1,2.3,34,0.00,SCT,SCT,0.00,615.0,WeatherDisplay:10.37,2013-03-14 16:29:00,
2013-03-14 10:37:00,60.4,29.6,30.11,SSE,147,1.2,3.4,31,0.00,SCT,SCT,0.00,640.0,WeatherDisplay:10.37,2013-03-14 16:37:00,
2013-03-14 10:43:00,60.5,28.1,30.11,SSW,209,3.1,4.6,29,0.00,SCT,SCT,0.00,659.0,WeatherDisplay:10.37,2013-03-14 16:43:00,
2013-03-14 10:50:00,60.9,27.5,30.11,South,190,1.3,4.6,28,0.00,SCT,SCT,0.00,559.0,WeatherDisplay:10.37,2013-03-14 16:50:00,
2013-03-14 10:57:00,62.0,30.2,30.09,South,188,1.8,4.0,30,0.00,SCT,SCT,0.00,640.0,WeatherDisplay:10.37,2013-03-14 16:57:00,
2013-03-14 11:04:00,62.5,29.8,30.10,South,173,0.0,3.4,29,0.00,SCT,SCT,0.00,615.0,WeatherDisplay:10.37,2013-03-14 17:04:00,
2013-03-14 11:11:00,62.9,30.1,30.10,SSE,163,0.3,2.0,29,0.00,SCT,SCT,0.00,680.0,WeatherDisplay:10.37,2013-03-14 17:11:00,
2013-03-14 11:18:00,63.4,29.7,30.10,SSE,164,1.5,5.8,28,0.00,SCT,SCT,0.00,679.0,WeatherDisplay:10.37,2013-03-14 17:18:00,
2013-03-14 11:25:00,63.8,28.2,30.10,South,169,1.9,4.6,26,0.00,SCT,SCT,0.00,657.0,WeatherDisplay:10.37,2013-03-14 17:25:00,
2013-03-14 11:32:00,64.5,29.7,30.09,South,172,0.8,2.3,27,0.00,SCT,SCT,0.00,621.0,WeatherDisplay:10.37,2013-03-14 17:32:00,
2013-03-14 11:39:00,64.5,29.7,30.09,SE,146,5.9,6.0,27,0.00,SCT,SCT,0.00,719.0,WeatherDisplay:10.37,2013-03-14 17:39:00,
2013-03-14 11:46:00,65.0,30.2,30.08,South,178,3.1,5.0,27,0.00,SCT,SCT,0.00,705.0,WeatherDisplay:10.37,2013-03-14 17:46:00,
2013-03-14 11:53:00,64.6,28.9,30.08,SE,144,6.4,6.9,26,0.00,SCT,SCT,0.00,671.0,WeatherDisplay:10.37,2013-03-14 17:53:00,
2013-03-14 12:00:00,64.8,29.1,30.08,SE,125,2.3,6.9,26,0.00,SCT,SCT,0.00,749.0,WeatherDisplay:10.37,2013-03-14 18:00:00,
2013-03-14 12:07:00,65.0,28.3,30.09,SE,134,1.7,8.1,25,0.00,SCT,SCT,0.00,761.0,WeatherDisplay:10.37,2013-03-14 18:07:00,
2013-03-14 12:14:00,64.8,27.1,30.08,ESE,105,1.1,3.4,24,0.00,BKN,BKN,0.00,842.0,WeatherDisplay:10.37,2013-03-14 18:14:00,
2013-03-14 12:21:00,65.6,28.8,30.08,SSE,158,4.6,4.6,25,0.00,BKN,BKN,0.00,788.0,WeatherDisplay:10.37,2013-03-14 18:21:00,
2013-03-14 12:28:00,65.4,27.6,30.08,South,172,0.0,1.1,24,0.00,BKN,BKN,0.00,812.0,WeatherDisplay:10.37,2013-03-14 18:28:00,
2013-03-14 12:35:00,65.5,26.7,30.08,WNW,287,0.4,1.1,23,0.00,BKN,BKN,0.00,830.0,WeatherDisplay:10.37,2013-03-14 18:35:00,
2013-03-14 12:42:00,66.0,27.1,30.07,SE,126,6.4,8.1,23,0.00,BKN,BKN,0.00,831.0,WeatherDisplay:10.37,2013-03-14 18:42:00,
2013-03-14 12:49:00,66.7,28.7,30.06,SSE,149,2.2,5.8,24,0.00,BKN,BKN,0.00,835.0,WeatherDisplay:10.37,2013-03-14 18:49:00,
2013-03-14 12:56:00,67.0,27.9,30.05,SE,140,0.3,5.8,23,0.00,BKN,BKN,0.00,840.0,WeatherDisplay:10.37,2013-03-14 18:56:00,
2013-03-14 13:03:00,67.9,27.6,30.06,South,173,2.1,3.4,22,0.00,BKN,BKN,0.00,838.0,WeatherDisplay:10.37,2013-03-14 19:03:00,
2013-03-14 13:10:00,67.6,27.4,30.06,WNW,302,0.9,4.0,22,0.00,BKN,BKN,0.00,838.0,WeatherDisplay:10.37,2013-03-14 19:10:00,
2013-03-14 13:17:00,67.5,27.3,30.05,NW,318,5.4,6.9,22,0.00,BKN,BKN,0.00,838.0,WeatherDisplay:10.37,2013-03-14 19:17:00,
2013-03-14 13:24:00,67.4,26.1,30.05,NNW,340,0.0,2.3,21,0.00,BKN,BKN,0.00,837.0,WeatherDisplay:10.37,2013-03-14 19:24:00,
2013-03-14 13:31:00,68.0,27.7,30.04,SSW,198,1.4,3.4,22,0.00,BKN,BKN,0.00,840.0,WeatherDisplay:10.37,2013-03-14 19:31:00,
2013-03-14 13:38:00,68.1,26.7,30.04,NW,324,1.9,4.6,21,0.00,BKN,BKN,0.00,847.0,WeatherDisplay:10.37,2013-03-14 19:38:00,
2013-03-14 13:45:00,68.1,26.7,30.03,NNE,13,2.5,3.4,21,0.00,BKN,BKN,0.00,812.0,WeatherDisplay:10.37,2013-03-14 19:45:00,
2013-03-14 13:52:00,68.4,26.9,30.03,SW,214,0.4,2.3,21,0.00,BKN,BKN,0.00,770.0,WeatherDisplay:10.37,2013-03-14 19:52:00,
2013-03-14 13:59:00,69.0,27.4,30.02,East,88,0.5,3.4,21,0.00,BKN,BKN,0.00,821.0,WeatherDisplay:10.37,2013-03-14 19:59:00,
2013-03-14 14:06:00,69.5,26.6,30.03,ESE,109,2.7,3.4,20,0.00,BKN,BKN,0.00,810.0,WeatherDisplay:10.37,2013-03-14 20:06:00,
2013-03-14 14:13:00,69.7,26.8,30.03,SE,138,1.6,4.0,20,0.00,BKN,BKN,0.00,809.0,WeatherDisplay:10.37,2013-03-14 20:13:00,
2013-03-14 14:20:00,69.3,27.7,30.02,SE,146,2.2,3.4,21,0.00,BKN,BKN,0.00,809.0,WeatherDisplay:10.37,2013-03-14 20:20:00,
2013-03-14 14:27:00,70.0,27.0,30.02,South,186,3.0,7.0,20,0.00,BKN,BKN,0.00,786.0,WeatherDisplay:10.37,2013-03-14 20:27:00,
2013-03-14 14:34:00,69.9,28.2,30.02,South,188,0.5,4.0,21,0.00,BKN,BKN,0.00,779.0,WeatherDisplay:10.37,2013-03-14 20:34:00,
2013-03-14 14:41:00,69.6,26.7,30.01,SSW,198,4.2,6.9,20,0.00,BKN,BKN,0.00,782.0,WeatherDisplay:10.37,2013-03-14 20:41:00,
2013-03-14 14:48:00,70.1,27.1,30.01,SE,142,1.5,5.8,20,0.00,BKN,BKN,0.00,758.0,WeatherDisplay:10.37,2013-03-14 20:48:00,
2013-03-14 14:55:00,70.4,27.4,30.01,SE,137,4.1,5.0,20,0.00,BKN,BKN,0.00,759.0,WeatherDisplay:10.37,2013-03-14 20:55:00,
2013-03-14 15:02:00,70.5,27.5,30.01,South,184,1.1,2.3,20,0.00,BKN,BKN,0.00,742.0,WeatherDisplay:10.37,2013-03-14 21:02:00,
2013-03-14 15:09:00,70.6,26.3,30.00,SE,141,1.4,3.4,19,0.00,BKN,BKN,0.00,745.0,WeatherDisplay:10.37,2013-03-14 21:09:00,
2013-03-14 15:16:00,70.6,26.3,30.00,SE,130,2.6,8.1,19,0.00,BKN,BKN,0.00,751.0,WeatherDisplay:10.37,2013-03-14 21:16:00,
2013-03-14 15:23:00,70.4,26.1,30.00,SSE,150,0.0,0.0,19,0.00,BKN,BKN,0.00,615.0,WeatherDisplay:10.37,2013-03-14 21:23:00,
2013-03-14 15:30:00,71.3,26.9,30.00,WSW,238,2.4,4.6,19,0.00,BKN,BKN,0.00,705.0,WeatherDisplay:10.37,2013-03-14 21:30:00,
2013-03-14 15:37:00,71.7,25.9,29.99,South,169,0.7,2.3,18,0.00,BKN,BKN,0.00,686.0,WeatherDisplay:10.37,2013-03-14 21:37:00,
2013-03-14 15:44:00,71.9,26.1,29.99,SSW,210,0.4,4.0,18,0.00,BKN,BKN,0.00,780.0,WeatherDisplay:10.37,2013-03-14 21:44:00,
2013-03-14 15:51:00,71.8,26.0,29.98,NW,318,1.7,3.4,18,0.00,BKN,BKN,0.00,234.0,WeatherDisplay:10.37,2013-03-14 21:51:00,
2013-03-14 15:58:00,72.0,27.5,29.98,SSW,203,4.2,5.8,19,0.00,BKN,BKN,0.00,517.0,WeatherDisplay:10.37,2013-03-14 21:58:00,
2013-03-14 16:05:00,71.9,24.7,29.99,WSW,252,5.1,11.5,17,0.00,BKN,BKN,0.00,571.0,WeatherDisplay:10.37,2013-03-14 22:05:00,
2013-03-14 16:12:00,71.7,24.5,29.99,SW,235,7.2,11.5,17,0.00,BKN,BKN,0.00,531.0,WeatherDisplay:10.37,2013-03-14 22:12:00,
2013-03-14 16:19:00,71.4,24.3,29.99,NNE,22,3.8,5.8,17,0.00,BKN,BKN,0.00,346.0,WeatherDisplay:10.37,2013-03-14 22:19:00,
2013-03-14 16:26:00,71.2,25.5,29.98,WSW,237,3.3,4.6,18,0.00,BKN,BKN,0.00,223.0,WeatherDisplay:10.37,2013-03-14 22:26:00,
2013-03-14 16:33:00,70.8,22.3,29.99,NNW,334,5.7,8.1,16,0.00,BKN,BKN,0.00,295.0,WeatherDisplay:10.37,2013-03-14 22:33:00,
2013-03-14 16:40:00,70.5,19.0,29.99,NNW,345,8.2,11.5,14,0.00,BKN,BKN,0.00,506.0,WeatherDisplay:10.37,2013-03-14 22:40:00,
2013-03-14 16:47:00,70.4,18.9,30.00,NNW,329,4.8,11.5,14,0.00,BKN,BKN,0.00,466.0,WeatherDisplay:10.37,2013-03-14 22:47:00,
2013-03-14 16:54:00,70.6,20.7,29.99,NNW,340,3.9,9.2,15,0.00,BKN,BKN,0.00,422.0,WeatherDisplay:10.37,2013-03-14 22:54:00,
2013-03-14 17:01:00,70.5,20.6,29.99,NNW,336,9.2,16.1,15,0.00,BKN,BKN,0.00,466.0,WeatherDisplay:10.37,2013-03-14 23:01:00,
2013-03-14 17:08:00,70.4,20.5,30.00,WNW,288,6.5,11.5,15,0.00,BKN,BKN,0.00,432.0,WeatherDisplay:10.37,2013-03-14 23:08:00,
2013-03-14 17:15:00,70.5,22.1,29.99,NNW,347,7.2,11.5,16,0.00,BKN,BKN,0.00,221.0,WeatherDisplay:10.37,2013-03-14 23:15:00,
2013-03-14 17:22:00,70.1,21.8,30.00,NW,309,5.5,9.2,16,0.00,BKN,BKN,0.00,232.0,WeatherDisplay:10.37,2013-03-14 23:22:00,
2013-03-14 17:29:00,69.5,21.3,30.00,NNW,337,5.0,9.2,16,0.00,BKN,BKN,0.00,174.0,WeatherDisplay:10.37,2013-03-14 23:29:00,
2013-03-14 17:36:00,69.1,21.0,30.00,WNW,301,4.8,8.1,16,0.00,BKN,BKN,0.00,139.0,WeatherDisplay:10.37,2013-03-14 23:36:00,
2013-03-14 17:43:00,68.9,22.2,30.00,WSW,237,5.3,11.5,17,0.00,BKN,BKN,0.00,336.0,WeatherDisplay:10.37,2013-03-14 23:43:00,
2013-03-14 17:50:00,69.1,21.0,30.00,NW,315,4.1,16.1,16,0.00,BKN,BKN,0.00,295.0,WeatherDisplay:10.37,2013-03-14 23:50:00,
2013-03-14 17:57:00,69.0,20.9,30.00,SW,233,2.7,5.8,16,0.00,BKN,BKN,0.00,279.0,WeatherDisplay:10.37,2013-03-14 23:57:00,
2013-03-14 18:04:00,68.6,20.6,30.00,NW,321,6.7,12.6,16,0.00,BKN,BKN,0.00,95.0,WeatherDisplay:10.37,2013-03-15 00:04:00,
2013-03-14 18:11:00,67.9,20.0,30.01,WNW,298,4.5,10.3,16,0.00,BKN,BKN,0.00,88.0,WeatherDisplay:10.37,2013-03-15 00:11:00,
2013-03-14 18:18:00,67.4,19.6,30.02,NW,309,4.4,6.9,16,0.00,BKN,BKN,0.00,77.0,WeatherDisplay:10.37,2013-03-15 00:18:00,
2013-03-14 18:25:00,66.9,20.6,30.02,WNW,292,3.2,6.9,17,0.00,BKN,BKN,0.00,67.0,WeatherDisplay:10.37,2013-03-15 00:25:00,
2013-03-14 18:32:00,66.5,20.3,30.02,WNW,294,5.9,11.5,17,0.00,BKN,BKN,0.00,58.0,WeatherDisplay:10.37,2013-03-15 00:32:00,
2013-03-14 18:39:00,66.1,20.0,30.04,NW,304,4.9,9.2,17,0.00,BKN,BKN,0.00,51.0,WeatherDisplay:10.37,2013-03-15 00:39:00,
2013-03-14 18:46:00,65.8,23.6,30.04,NW,314,3.1,4.0,20,0.00,BKN,BKN,0.00,30.0,WeatherDisplay:10.37,2013-03-15 00:46:00,
2013-03-14 18:53:00,65.4,24.4,30.04,NW,322,5.9,10.3,21,0.00,BKN,BKN,0.00,21.0,WeatherDisplay:10.37,2013-03-15 00:53:00,
2013-03-14 19:00:00,65.1,26.3,30.03,NW,326,6.1,11.5,23,0.00,BKN,BKN,0.00,11.0,WeatherDisplay:10.37,2013-03-15 01:00:00,
2013-03-14 19:07:00,64.7,26.0,30.03,NNW,333,5.9,8.1,23,0.00,BKN,BKN,0.00,0.0,WeatherDisplay:10.37,2013-03-15 01:07:00,
2013-03-14 19:14:00,64.3,26.7,30.04,North,11,5.1,10.3,24,0.00,BKN,BKN,0.00,0.0,WeatherDisplay:10.37,2013-03-15 01:14:00,
2013-03-14 19:21:00,63.9,28.3,30.05,North,9,2.7,5.8,26,0.00,BKN,BKN,0.00,0.0,WeatherDisplay:10.37,2013-03-15 01:21:00,
2013-03-14 19:28:00,63.4,29.7,30.05,NNE,21,2.2,3.4,28,0.00,BKN,BKN,0.00,0.0,WeatherDisplay:10.37,2013-03-15 01:28:00,
2013-03-14 19:35:00,62.9,29.3,30.04,NE,38,1.1,3.4,28,0.00,BKN,BKN,0.00,0.0,WeatherDisplay:10.37,2013-03-15 01:35:00,
2013-03-14 19:42:00,62.3,29.6,30.05,NNE,26,2.6,4.6,29,0.00,BKN,BKN,0.00,0.0,WeatherDisplay:10.37,2013-03-15 01:42:00,
2013-03-14 19:49:00,61.9,29.3,30.06,NNE,25,2.5,4.6,29,0.00,BKN,BKN,0.00,0.0,WeatherDisplay:10.37,2013-03-15 01:49:00,
2013-03-14 19:56:00,61.6,29.0,30.06,NNE,25,0.0,1.0,29,0.00,BKN,BKN,0.00,0.0,WeatherDisplay:10.37,2013-03-15 01:56:00,
2013-03-14 20:03:00,61.2,29.5,30.01,NNE,18,1.0,3.4,30,0.00,BKN,BKN,0.00,0.0,WeatherDisplay:10.37,2013-03-15 02:03:00,
2013-03-14 20:10:00,60.8,29.1,30.01,NNE,18,1.2,2.3,30,0.00,BKN,BKN,0.00,0.0,WeatherDisplay:10.37,2013-03-15 02:10:00,
2013-03-14 20:17:00,60.5,28.1,30.01,NNE,13,0.6,5.8,29,0.00,BKN,BKN,0.00,0.0,WeatherDisplay:10.37,2013-03-15 02:17:00,
2013-03-14 20:24:00,60.3,27.9,30.02,NNE,13,0.5,2.3,29,0.00,BKN,BKN,0.00,0.0,WeatherDisplay:10.37,2013-03-15 02:24:00,
2013-03-14 20:31:00,60.1,27.7,30.02,NNE,13,0.0,1.1,29,0.00,BKN,BKN,0.00,0.0,WeatherDisplay:10.37,2013-03-15 02:31:00,
2013-03-14 20:38:00,59.8,27.4,30.02,NNE,13,0.2,1.1,29,0.00,BKN,BKN,0.00,0.0,WeatherDisplay:10.37,2013-03-15 02:38:00,
2013-03-14 20:45:00,59.5,28.0,30.03,NNE,13,0.0,0.0,30,0.00,BKN,BKN,0.00,0.0,WeatherDisplay:10.37,2013-03-15 02:45:00,
2013-03-14 20:52:00,59.0,27.6,30.03,NNE,13,0.9,3.4,30,0.00,BKN,BKN,0.00,0.0,WeatherDisplay:10.37,2013-03-15 02:52:00,
2013-03-14 20:59:00,59.0,28.4,30.03,NNE,13,0.4,2.3,31,0.00,BKN,BKN,0.00,0.0,WeatherDisplay:10.37,2013-03-15 02:59:00,
2013-03-14 21:06:00,58.6,28.8,29.98,NNE,13,0.0,0.0,32,0.00,BKN,BKN,0.00,0.0,WeatherDisplay:10.37,2013-03-15 03:06:00,
2013-03-14 21:13:00,58.2,28.5,29.98,NNE,13,0.0,0.0,32,0.00,BKN,BKN,0.00,0.0,WeatherDisplay:10.37,2013-03-15 03:13:00,
2013-03-14 21:20:00,57.9,28.2,29.98,NNE,13,0.0,0.0,32,0.00,BKN,BKN,0.00,0.0,WeatherDisplay:10.37,2013-03-15 03:20:00,
2013-03-14 21:27:00,57.6,28.7,29.98,NNE,13,0.0,0.0,33,0.00,BKN,BKN,0.00,0.0,WeatherDisplay:10.37,2013-03-15 03:27:00,
2013-03-14 21:34:00,57.3,28.4,29.99,NNE,13,0.0,0.0,33,0.00,BKN,BKN,0.00,0.0,WeatherDisplay:10.37,2013-03-15 03:34:00,
2013-03-14 21:41:00,56.9,28.1,29.99,NNE,13,0.0,0.0,33,0.00,BKN,BKN,0.00,0.0,WeatherDisplay:10.37,2013-03-15 03:41:00,
2013-03-14 21:48:00,56.5,28.4,29.99,NNE,13,0.0,0.0,34,0.00,BKN,BKN,0.00,0.0,WeatherDisplay:10.37,2013-03-15 03:48:00,
2013-03-14 21:55:00,56.0,28.0,29.99,NNE,13,0.1,1.1,34,0.00,BKN,BKN,0.00,0.0,WeatherDisplay:10.37,2013-03-15 03:55:00,
2013-03-14 22:02:00,55.5,27.6,29.99,NNE,13,0.0,0.0,34,0.00,BKN,BKN,0.00,0.0,WeatherDisplay:10.37,2013-03-15 04:02:00,
2013-03-14 22:09:00,55.1,26.5,29.97,NNE,13,0.0,0.0,33,0.00,BKN,BKN,0.00,0.0,WeatherDisplay:10.37,2013-03-15 04:09:00,
2013-03-14 22:16:00,54.6,25.3,29.97,NNE,13,0.0,1.1,32,0.00,BKN,BKN,0.00,0.0,WeatherDisplay:10.37,2013-03-15 04:16:00,
2013-03-14 22:22:00,54.2,24.2,29.97,WNW,293,0.0,0.0,31,0.00,BKN,BKN,0.00,0.0,WeatherDisplay:10.37,2013-03-15 04:22:00,
2013-03-14 22:29:00,53.9,23.9,29.97,WNW,290,1.9,1.9,31,0.00,BKN,BKN,0.00,0.0,WeatherDisplay:10.37,2013-03-15 04:29:00,
2013-03-14 22:36:00,53.4,23.5,29.98,SW,220,0.1,1.1,31,0.00,BKN,BKN,0.00,0.0,WeatherDisplay:10.37,2013-03-15 04:36:00,
2013-03-14 22:43:00,53.1,23.2,29.98,SSW,196,2.7,5.8,31,0.00,BKN,BKN,0.00,0.0,WeatherDisplay:10.37,2013-03-15 04:43:00,
2013-03-14 22:50:00,52.8,23.0,29.98,SSW,200,1.0,3.4,31,0.00,BKN,BKN,0.00,0.0,WeatherDisplay:10.37,2013-03-15 04:50:00,
2013-03-14 22:57:00,52.7,22.9,29.98,SSW,193,1.9,3.4,31,0.00,BKN,BKN,0.00,0.0,WeatherDisplay:10.37,2013-03-15 04:57:00,
2013-03-14 23:04:00,52.6,22.8,29.95,SSW,205,1.5,2.3,31,0.00,SCT,SCT,0.00,0.0,WeatherDisplay:10.37,2013-03-15 05:04:00,
2013-03-14 23:11:00,52.5,23.5,29.95,SW,225,0.5,1.1,32,0.00,SCT,SCT,0.00,0.0,WeatherDisplay:10.37,2013-03-15 05:11:00,
2013-03-14 23:18:00,52.3,24.0,29.96,SW,224,1.3,2.3,33,0.00,SCT,SCT,0.00,0.0,WeatherDisplay:10.37,2013-03-15 05:18:00,
2013-03-14 23:25:00,52.0,23.8,29.95,SW,223,0.0,0.0,33,0.00,SCT,SCT,0.00,0.0,WeatherDisplay:10.37,2013-03-15 05:25:00,
2013-03-14 23:32:00,51.6,24.1,29.95,SW,223,2.4,2.4,34,0.00,SCT,SCT,0.00,0.0,WeatherDisplay:10.37,2013-03-15 05:32:00,
2013-03-14 23:39:00,51.1,24.4,29.95,SW,224,0.0,1.1,35,0.00,SCT,SCT,0.00,0.0,WeatherDisplay:10.37,2013-03-15 05:39:00,
2013-03-14 23:46:00,50.5,25.2,29.94,SW,224,1.1,3.4,37,0.00,SCT,SCT,0.00,0.0,WeatherDisplay:10.37,2013-03-15 05:46:00,
2013-03-14 23:53:00,49.8,27.0,29.95,SW,221,2.5,2.5,41,0.00,SCT,SCT,0.00,0.0,WeatherDisplay:10.37,2013-03-15 05:53:00,